DW7898 Weather Reports


time (UTC)temp
C
wind
direction
speed
KPH
gust
KPH
rain 1hr
cm
rain 24hr
cm
rain mn
cm
humidity
%
barometer
mb
20190422161356 17 52 9.7 46.7 0.00 0.00 0.00 59 998.4
20190422160336 17 70 19.3 32.2 0.00 0.00 0.00 60 998.4
20190422155358 17 82 19.3 33.8 0.00 0.00 0.00 60 998.4
20190422154339 17 57 20.9 49.9 0.00 0.00 0.00 60 998.5
20190422153344 17 75 17.7 38.6 0.00 0.00 0.00 61 998.3
20190422152338 17 84 19.3 38.6 0.00 0.00 0.00 61 998.2
20190422151341 17 50 17.7 41.8 0.00 0.00 0.00 60 998.3
20190422150350 17 97 22.5 33.8 0.00 0.00 0.00 59 998.5
20190422145345 17 81 22.5 38.6 0.00 0.00 0.00 58 998.5
20190422144349 17 69 16.1 40.2 0.00 0.00 0.00 57 999.0
20190422143353 17 47 17.7 35.4 0.00 0.00 0.00 57 999.2
20190422142348 17 70 12.9 37.0 0.00 0.00 0.00 56 999.3
20190422141350 17 56 17.7 30.6 0.00 0.00 0.00 55 999.2
20190422140354 17 76 11.3 29.0 0.00 0.00 0.00 56 999.4
20190422135349 17 81 12.9 27.4 0.00 0.00 0.00 56 999.5
20190422134351 17 86 16.1 25.7 0.00 0.00 0.00 57 999.5
20190422133337 16 73 9.7 30.6 0.00 0.00 0.00 58 999.9
20190422132350 16 67 17.7 32.2 0.00 0.00 0.00 58 1000.1
20190422131335 17 79 11.3 22.5 0.00 0.00 0.00 58 1000.3
20190422130353 17 113 12.9 30.6 0.00 0.00 0.00 57 1000.0
20190422125400 17 42 8.0 17.7 0.00 0.00 0.00 59 1000.1
20190422124340 16 103 11.3 25.7 0.00 0.00 0.00 58 1000.0
20190422123340 16 71 14.5 29.0 0.00 0.00 0.00 59 1000.1
20190422122355 16 67 11.3 35.4 0.00 0.00 0.00 60 1000.1
20190422121340 16 70 11.3 38.6 0.00 0.00 0.00 62 1000.2
20190422120344 16 84 17.7 35.4 0.00 0.00 0.00 62 1000.4
20190422115343 17 69 14.5 32.2 0.00 0.00 0.00 61 1000.4
20190422114346 17 54 19.3 38.6 0.00 0.00 0.00 60 1000.8
20190422113351 17 92 11.3 27.4 0.00 0.00 0.00 60 1000.8
20190422112348 17 69 9.7 33.8 0.00 0.00 0.00 60 1000.9
20190422111347 17 62 20.9 48.3 0.00 0.00 0.00 60 1000.9
20190422110349 17 72 17.7 41.8 0.00 0.00 0.00 60 1000.9
20190422105347 17 66 22.5 43.5 0.00 0.00 0.00 60 1000.7
20190422104348 17 67 17.7 40.2 0.00 0.00 0.00 60 1000.7
20190422103348 17 71 24.1 45.1 0.00 0.00 0.00 59 1001.0
20190422102348 17 73 22.5 40.2 0.00 0.00 0.00 59 1001.1
20190422101357 17 56 17.7 35.4 0.00 0.00 0.00 58 1001.2
20190422100351 17 69 19.3 32.2 0.00 0.00 0.00 59 1001.2
20190422095348 17 73 16.1 30.6 0.00 0.00 0.00 60 1001.4
20190422094352 17 67 24.1 35.4 0.00 0.00 0.00 60 1001.4
20190422093351 17 44 12.9 30.6 0.00 0.00 0.00 60 1001.4
20190422092356 17 70 14.5 30.6 0.00 0.00 0.00 59 1001.4
20190422091336 17 80 9.7 29.0 0.00 0.00 0.00 58 1001.5
20190422090350 17 62 19.3 38.6 0.00 0.00 0.00 58 1001.6
20190422085347 17 48 19.3 38.6 0.00 0.00 0.00 58 1001.7
20190422084349 16 72 20.9 37.0 0.00 0.00 0.00 59 1001.6
20190422082354 16 58 24.1 45.1 0.00 0.00 0.00 58 1001.7
20190422081351 16 46 22.5 48.3 0.00 0.00 0.00 55 1001.7
20190422080350 17 60 24.1 35.4 0.00 0.00 0.00 53 1001.8
20190422075341 17 52 14.5 32.2 0.00 0.00 0.00 51 1001.7
20190422074345 16 50 19.3 30.6 0.00 0.00 0.00 50 1001.9
20190422073350 16 79 14.5 29.0 0.00 0.00 0.00 51 1001.7
20190422072353 16 63 12.9 25.7 0.00 0.00 0.00 52 1001.7
20190422071354 16 57 14.5 27.4 0.00 0.00 0.00 54 1001.9
20190422070341 15 53 8.0 24.1 0.00 0.00 0.00 58 1002.0
20190422065339 15 83 12.9 19.3 0.00 0.00 0.00 60 1002.2
20190422064350 15 77 4.8 16.1 0.00 0.00 0.00 61 1002.3
20190422063351 15 85 9.7 22.5 0.00 0.00 0.00 60 1002.1
20190422062348 15 75 12.9 29.0 0.00 0.00 0.00 61 1002.1
20190422061351 15 57 9.7 24.1 0.00 0.00 0.00 62 1002.0
20190422060338 15 64 8.0 17.7 0.00 0.00 0.00 63 1002.2
20190422055351 15 76 12.9 24.1 0.00 0.00 0.00 63 1002.2
20190422054356 15 55 12.9 25.7 0.00 0.00 0.00 63 1002.1
20190422053354 15 75 8.0 22.5 0.00 0.00 0.00 63 1002.2
20190422052343 15 43 9.7 19.3 0.00 0.00 0.00 61 1002.1
20190422051352 15 36 12.9 29.0 0.00 0.00 0.00 60 1002.0
20190422050355 15 58 19.3 29.0 0.00 0.00 0.00 59 1002.0
20190422045356 15 70 14.5 32.2 0.00 0.00 0.00 57 1002.1
20190422044353 15 37 14.5 25.7 0.00 0.00 0.00 55 1002.1
20190422043353 15 74 16.1 30.6 0.00 0.00 0.00 54 1002.2
20190422042350 15 74 17.7 33.8 0.00 0.00 0.00 54 1002.4
20190422041336 15 55 8.0 17.7 0.00 0.00 0.00 54 1002.5
20190422040358 15 51 12.9 22.5 0.00 0.00 0.00 54 1002.5
20190422035342 15 62 9.7 22.5 0.00 0.00 0.00 55 1002.7
20190422034352 15 59 9.7 17.7 0.00 0.00 0.00 57 1002.8
20190422033357 15 59 6.4 20.9 0.00 0.00 0.00 58 1003.1
20190422032349 15 69 8.0 20.9 0.00 0.00 0.00 58 1003.2
20190422031352 15 48 6.4 17.7 0.00 0.00 0.00 59 1003.4
20190422030400 15 46 8.0 17.7 0.00 0.00 0.00 59 1003.5
20190422025343 15 67 9.7 20.9 0.00 0.00 0.00 59 1003.9
20190422024346 16 51 17.7 27.4 0.00 0.00 0.00 59 1004.0
20190422023356 16 53 11.3 30.6 0.00 0.00 0.00 58 1004.0
20190422022357 16 59 9.7 22.5 0.00 0.00 0.00 57 1004.1
20190422021340 16 62 11.3 32.2 0.00 0.00 0.00 57 1004.1
20190422020340 16 49 17.7 33.8 0.00 0.00 0.00 57 1004.0
20190422015341 16 63 14.5 38.6 0.00 0.00 0.00 56 1004.0
20190422014341 15 63 14.5 32.2 0.00 0.00 0.00 55 1004.1
20190422013343 15 59 12.9 25.7 0.00 0.00 0.00 56 1004.5
20190422012339 15 74 9.7 25.7 0.00 0.00 0.00 56 1004.7
20190422011345 15 49 12.9 27.4 0.00 0.00 0.00 56 1005.2
20190422010357 15 72 11.3 25.7 0.00 0.00 0.00 56 1005.5
20190422005352 15 66 14.5 29.0 0.00 0.00 0.00 55 1005.8
20190422004352 16 62 14.5 24.1 0.00 0.00 0.00 55 1005.8
20190422003356 16 86 12.9 25.7 0.00 0.00 0.00 54 1006.2
20190422002354 16 72 12.9 22.5 0.00 0.00 0.00 54 1006.3
20190422001339 16 78 9.7 25.7 0.00 0.00 0.00 54 1006.3
20190422000346 16 67 12.9 25.7 0.00 0.00 0.00 54 1006.3
20190421235336 16 75 9.7 25.7 0.00 0.00 0.00 53 1006.7
20190421234339 16 51 11.3 33.8 0.00 0.00 0.00 53 1006.6
20190421233337 16 59 12.9 25.7 0.00 0.00 0.00 52 1006.6
20190421232352 16 58 14.5 24.1 0.00 0.00 0.00 53 1006.8
20190421231338 16 83 9.7 20.9 0.00 0.00 0.00 54 1006.9
20190421230345 16 81 6.4 22.5 0.00 0.00 0.00 54 1006.8
20190421225343 16 46 11.3 20.9 0.00 0.00 0.00 54 1006.9
20190421224345 16 63 12.9 22.5 0.00 0.00 0.00 54 1007.2
20190421223352 16 67 12.9 24.1 0.00 0.00 0.00 54 1007.6
20190421222352 16 76 9.7 22.5 0.00 0.00 0.00 54 1007.7
20190421221357 16 53 9.7 22.5 0.00 0.00 0.00 55 1007.9
20190421220354 16 90 4.8 16.1 0.00 0.00 0.00 54 1008.0
20190421215351 16 53 12.9 25.7 0.00 0.00 0.00 54 1008.1
20190421214352 16 66 6.4 24.1 0.00 0.00 0.00 55 1008.1
20190421213337 16 52 9.7 20.9 0.00 0.00 0.00 56 1008.2
20190421212348 16 53 11.3 22.5 0.00 0.00 0.00 57 1008.2
20190421211347 16 63 12.9 19.3 0.00 0.00 0.00 58 1008.5
20190421210354 16 57 9.7 17.7 0.00 0.00 0.00 58 1008.7
20190421205340 16 73 11.3 27.4 0.00 0.00 0.00 59 1009.0
20190421204337 16 81 9.7 24.1 0.00 0.00 0.00 60 1009.1
20190421203339 16 35 9.7 24.1 0.00 0.00 0.00 60 1009.5
20190421202337 16 88 8.0 25.7 0.00 0.00 0.00 60 1009.5
20190421201343 16 67 20.9 30.6 0.00 0.00 0.00 60 1009.6
20190421200349 16 77 12.9 40.2 0.00 0.00 0.00 60 1009.4
20190421195354 16 75 17.7 33.8 0.00 0.00 0.00 60 1009.2
20190421194337 16 85 16.1 27.4 0.00 0.00 0.00 61 1009.2
20190421193337 16 63 16.1 33.8 0.00 0.03 0.00 61 1009.0
20190421192358 16 72 16.1 40.2 0.00 0.03 0.00 60 1008.9
20190421191357 16 89 17.7 37.0 0.00 0.03 0.00 60 1009.0
20190421190339 16 57 16.1 24.1 0.00 0.03 0.00 61 1008.8
20190421185339 16 75 12.9 27.4 0.00 0.03 0.00 61 1008.8
20190421184339 16 75 9.7 27.4 0.00 0.03 0.00 61 1008.8
20190421183342 16 74 16.1 35.4 0.00 0.03 0.00 61 1008.9
20190421182342 16 74 16.1 35.4 0.00 0.03 0.00 60 1008.9
20190421181342 16 70 17.7 37.0 0.00 0.03 0.00 59 1008.9
20190421180352 16 59 25.7 45.1 0.00 0.03 0.00 58 1008.7
20190421175349 16 50 16.1 37.0 0.00 0.03 0.00 58 1008.8
20190421174354 17 70 14.5 35.4 0.00 0.03 0.00 57 1008.8
20190421173352 17 79 11.3 35.4 0.00 0.10 0.00 57 1008.8
20190421172337 17 52 17.7 43.5 0.00 0.10 0.00 55 1008.9
20190421171346 17 49 20.9 35.4 0.00 0.10 0.00 55 1009.0
20190421170354 17 72 17.7 38.6 0.00 0.10 0.00 55 1009.0
20190421165342 17 54 12.9 25.7 0.00 0.10 0.00 55 1009.1
20190421163356 17 50 19.3 32.2 0.00 0.10 0.00 54 1009.4
20190421162354 17 56 22.5 33.8 0.00 0.10 0.00 55 1009.4